Terminal Aerodrome Forecast
Issued by NWS

Current Version | Previous Version | Text Only | Print | Product List | Glossary On
Versions: 1 2 3 4 5 6 7 8 9 10 11 12 13 14 15 16 17 18 19 20 21 22 23 24 25
000
FTUS41 KOKX 302300
TAFHPN
TAF
KHPN 302320Z 3100/3124 23005KT P6SM FEW050
     FM310100 VRB02KT P6SM SCT250
     FM311300 21007KT P6SM SCT050 SCT250
     FM311800 19008KT P6SM SCT050 BKN250
      AMD NOT SKED=

USA.gov is the U.S. government's official web portal to all federal, state and local government web resources and services.